Weather History for Alamosa, CO

Change the Weather History Date:

Sunday, February 24, 2013

  Actual Average Record
Temperature  
Mean Temperature 21 °F 26 °F  
Max Temperature 35 °F 43 °F 60 °F (1981)
Min Temperature 7 °F 10 °F -22 °F (1961)
Degree Days  
Heating Degree Days 44 39  
Month to date heating degree days 1041 1031  
Since 1 July heating degree days 6600 6178  
Cooling Degree Days 0 0  
Month to date cooling degree days 0 0  
Year to date cooling degree days 0 0  
Moisture  
Dew Point 10 °F    
Average Humidity 64    
Maximum Humidity 92    
Minimum Humidity 36    
Precipitation  
Precipitation T in 0.01 in 0.22 in (1991)
Month to date precipitation 0.15 0.22  
Year to date precipitation 0.22 0.48  
Snow  
Snow T in 0.20 in 4.30 in (1948)
Month to date snowfall 2.3 3.3  
Since 1 July snowfall 15.4 17.6  
Snow Depth 1.00 in    
Sea Level Pressure  
Sea Level Pressure 29.76 in    
Wind  
Wind Speed 9 mph (NW)    
Max Wind Speed 23 mph    
Max Gust Speed 30 mph    
Visibility 8 miles    
Events Fog    
T = Trace of Precipitation, MM = Missing Value Source: NWS Daily Summary

Daily Weather History Graph

Daily Weather History Graph

Search for Another Location

Airport:

Trip Planner

Search our weather history database for the weather conditions in past years. The results will help you decide how hot, cold, wet, or windy it might be!

Date:

Astronomy

Feb. 24, 2013 Rise Set
Actual Time 6:41 AM MST 5:52 PM MST
Civil Twilight 6:14 AM MST 6:19 PM MST
Nautical Twilight 5:44 AM MST 6:49 PM MST
Astronomical Twilight 5:14 AM MST 7:19 PM MST
Moon 5:06 PM MST (2/24) 5:39 AM MST (2/24)
Length of Visible Light 12h 04m
Length of Day
11h 11m
Waxing Gibbous, 99% of the Moon is Illuminated
Feb 24
Waxing Gibbous
Feb 25
Full
Mar 4
Last Quarter
Mar 11
New
Mar 19
First Quarter

Hourly Weather History & Observations

Time (MST) Temp. Windchill Dew Point Humidity Pressure Visibility Wind Dir Wind Speed Gust Speed Precip Events Conditions
12:52 AM 18.0 °F 8.7 °F 14.0 °F 84% 29.70 in 10.0 mi West 6.9 mph - N/A   Clear
1:52 AM 15.1 °F 5.2 °F 12.9 °F 91% 29.71 in 10.0 mi WNW 6.9 mph - N/A   Clear
2:49 AM 10.4 °F 2.2 °F 8.6 °F 92% 29.63 in 10.0 mi SSW 4.6 mph - N/A   Scattered Clouds
2:52 AM 10.0 °F -0.9 °F 8.1 °F 92% 29.73 in 10.0 mi South 6.9 mph - N/A   Mostly Cloudy
3:24 AM 10.4 °F 0.8 °F 8.6 °F 92% 29.63 in 10.0 mi West 5.8 mph - N/A   Partly Cloudy
3:42 AM 10.4 °F 2.2 °F 8.6 °F 92% 29.65 in 2.5 mi SW 4.6 mph - N/A   Mostly Cloudy
3:48 AM 12.2 °F 1.7 °F 8.6 °F 85% 29.65 in 0.8 mi West 6.9 mph - N/A   Mist
3:52 AM 12.0 °F 0.5 °F 10.0 °F 92% 29.72 in 0.5 mi West 8.1 mph - N/A Fog Light Freezing Fog
4:04 AM 12.2 °F 4.3 °F 12.2 °F 100% 29.64 in 2.5 mi SSW 4.6 mph - N/A   Overcast
4:11 AM 12.2 °F 6.1 °F 10.4 °F 92% 29.65 in 3.0 mi Variable 3.5 mph - N/A   Overcast
4:16 AM 12.2 °F - 8.6 °F 85% 29.65 in 1.8 mi Calm Calm - N/A   Overcast
4:29 AM 12.2 °F 6.1 °F 10.4 °F 92% 29.65 in 0.5 mi NW 3.5 mph - N/A Fog Light Freezing Fog
4:52 AM 10.0 °F - 8.1 °F 92% 29.73 in 1.0 mi Calm Calm - N/A   Mostly Cloudy
4:59 AM 10.4 °F 4.0 °F 6.8 °F 85% 29.63 in 1.5 mi SE 3.5 mph - N/A   Mostly Cloudy
5:04 AM 10.4 °F 0.8 °F 8.6 °F 92% 29.63 in 3.0 mi SE 5.8 mph - N/A   Scattered Clouds
5:52 AM 10.0 °F -1.9 °F 6.1 °F 84% 29.77 in 10.0 mi SSW 8.1 mph - N/A   Clear
6:52 AM 12.9 °F -0.9 °F 8.1 °F 81% 29.80 in 10.0 mi SW 11.5 mph - N/A   Clear
7:52 AM 10.9 °F -0.8 °F 7.0 °F 84% 29.84 in 10.0 mi WSW 8.1 mph - N/A   Clear
8:22 AM 10.4 °F 0.8 °F 6.8 °F 85% 29.70 in 10.0 mi North 5.8 mph - N/A   Scattered Clouds
8:27 AM 12.2 °F 2.9 °F 10.4 °F 92% 29.69 in 7.0 mi NNW 5.8 mph - N/A   Mostly Cloudy
8:52 AM 18.0 °F 11.1 °F 15.1 °F 88% 29.83 in 10.0 mi North 4.6 mph - N/A   Mostly Cloudy
9:08 AM 19.4 °F 9.5 °F 15.8 °F 86% 29.69 in 10.0 mi NNW 8.1 mph - N/A   Mostly Cloudy
9:31 AM 21.2 °F 10.9 °F 15.8 °F 80% 29.69 in 10.0 mi North 9.2 mph - N/A   Mostly Cloudy
9:41 AM 23.0 °F 13.9 °F 15.8 °F 74% 29.69 in 10.0 mi North 8.1 mph - N/A   Scattered Clouds
9:52 AM 24.1 °F 13.1 °F 14.0 °F 65% 29.76 in 10.0 mi North 11.5 mph - N/A   Partly Cloudy
10:52 AM 26.1 °F 21.9 °F 14.0 °F 60% 29.74 in 10.0 mi Variable 3.5 mph - N/A   Partly Cloudy
11:52 AM 28.9 °F 22.8 °F 9.0 °F 43% 29.73 in 10.0 mi SE 5.8 mph - N/A   Partly Cloudy
12:52 PM 32.0 °F 25.6 °F 8.1 °F 37% 29.70 in 10.0 mi West 6.9 mph - N/A   Clear
1:52 PM 34.0 °F 28.8 °F 10.9 °F 38% 29.69 in 10.0 mi NW 5.8 mph 17.3 mph N/A   Mostly Cloudy
2:52 PM 30.0 °F 19.5 °F 12.9 °F 49% 29.77 in 8.0 mi NNE 13.8 mph 18.4 mph N/A   Overcast
3:52 PM 28.9 °F 21.1 °F 15.1 °F 56% 29.78 in 10.0 mi NW 8.1 mph - 0.00 in   Overcast
4:52 PM 25.0 °F 14.8 °F 18.0 °F 75% 29.85 in 10.0 mi East 10.4 mph 26.5 mph 0.00 in   Overcast
5:52 PM 23.0 °F 14.7 °F 15.1 °F 72% 29.89 in 10.0 mi Variable 6.9 mph - N/A   Overcast
6:52 PM 21.9 °F - 10.9 °F 63% 29.92 in 10.0 mi Calm Calm - N/A   Partly Cloudy
7:52 PM 21.9 °F 8.2 °F 6.1 °F 51% 29.95 in 10.0 mi NNE 16.1 mph 21.9 mph N/A   Clear
8:52 PM 21.0 °F 7.6 °F 5.0 °F 50% 29.95 in 10.0 mi North 15.0 mph - N/A   Clear
9:52 PM 21.0 °F 7.6 °F 3.9 °F 48% 29.94 in 10.0 mi NNE 15.0 mph 24.2 mph N/A   Clear
10:52 PM 19.9 °F 5.7 °F 3.9 °F 50% 29.95 in 10.0 mi North 16.1 mph 25.3 mph N/A   Clear
11:52 PM 19.9 °F 7.9 °F 3.9 °F 50% 29.94 in 10.0 mi NNW 11.5 mph - N/A   Clear